Location: Palmerston North
(40.3500°S, 175.6170°E)
Time: 01:45:25
(UTC+13:00)

CZ-2D R/B - Pass Details

Date: 24 January 2019
Orbit: 523 x 538 km, 97.4° (Epoch: 13 October)

Event Time Altitude Azimuth Distance (km) Brightness Sun altitude
Rises 21:25:23 0° 172° (S) 2,733 7.2 -7.8°
Reaches altitude 10° 21:27:32 10° 174° (S) 1,834 6.4 -8.1°
Maximum altitude 21:31:28 66° 256° (WSW) 602 3.8 -8.7°
Drops below altitude 10° 21:35:21 10° 337° (NNW) 1,808 5.8 -9.3°
Sets 21:37:28 0° 340° (NNW) 2,691 6.7 -9.7°
